Flag for U.S.A. Weather past 2 weeks in Mason, Ohio, U.S.A.

Now
33 °F

Mostly cloudy.


Feels Like: 30 °F
Forecast: 34 / 46 °F
Wind: 3 mph from East

Location: Butler County Regional Airport

Current Time: Feb 1, 2015 at 5:26:31 AM

Latest Report: Feb 1, 2015 at 4:53 AM


Visibility: 7 mi

Pressure: 30.17 "Hg

Humidity: 92%

Dew point: 31 °F

Location of MasonLocation

Historic Weather in Mason — Graph

°F

Mason temperature yesterday

Maximum temperature yesterday: 39 °F (at 3:53 PM)
Minimum temperature yesterday: 13 °F (at 3:53 AM)
Average temperature yesterday: 28 °F

Past Weeks' High & Low Weather Summary

 TemperatureHumidityPressure
High54 °F (Jan 17, 2:53 PM)97% (Jan 18, 5:53 AM)30.51 "Hg (Jan 18, 5:53 AM)
Low9 °F (Jan 28, 6:53 AM)37% (Jan 17, 3:53 PM)29.69 "Hg (Jan 25, 3:53 PM)
Average33 °F74%30.09 "Hg
* Reported Jan 17 3:53 AM — Feb 1 3:53 AM, Mason, Weather by CustomWeather, © 2014

Note: Actual official high and low records may vary slightly from our data, if they occured in-between our weather recording intervals... More about our weather records

Advertising

Mason weather history for previous 24 hours

 ConditionsComfort  
Time TempWeatherWind HumidityBarometerVisibility
3:53 AM
Feb 1
33 °FFog.6 mph96%30.17 "Hg5 mi
2:53 AM33 °FFog.No wind92%30.20 "Hg5 mi
1:53 AM33 °FFog.No wind96%30.23 "Hg5 mi
12:53 AM33 °FFog.No wind96%30.23 "Hg5 mi
11:53 PM
Jan 31
34 °FLight rain. Overcast.No wind85%30.26 "Hg7 mi
10:53 PM36 °FLight rain. Overcast.No wind70%30.27 "Hg8 mi
9:53 PM37 °FLight rain. Mostly cloudy.3 mph65%30.28 "Hg9 mi
8:53 PM37 °FOvercast.No wind54%30.29 "Hg10 mi
7:53 PM37 °FOvercast.No wind54%30.31 "Hg10 mi
6:53 PM36 °FPassing clouds.No wind54%30.31 "Hg10 mi
5:53 PM37 °FSunny.5 mph52%30.30 "Hg10 mi
4:53 PM38 °FSunny.6 mph51%30.29 "Hg10 mi
3:53 PM39 °FSunny.6 mph48%30.31 "Hg10 mi
2:53 PM38 °FPassing clouds.8 mph48%30.33 "Hg10 mi
1:53 PM37 °FSunny.8 mph50%30.34 "Hg10 mi
12:53 PM37 °FSunny.12 mph50%30.37 "Hg10 mi
11:53 AM35 °FSunny.7 mph52%30.40 "Hg10 mi
10:53 AM31 °FPassing clouds.3 mph67%30.42 "Hg10 mi
9:53 AM26 °FSunny.No wind77%30.42 "Hg9 mi
8:53 AM21 °FSunny.No wind88%30.43 "Hg7 mi
7:53 AM14 °FSunny.No wind87%30.43 "Hg7 mi
6:53 AM13 °FClear.No wind88%30.42 "Hg9 mi
5:53 AM13 °FClear.No wind88%30.41 "Hg9 mi
Weather by CustomWeather, © 2014

See weather overviewHow to use our weather pages